FENGYUN 1C DEB

Satellite information

Favourite Embed

Satellite Type and Status

DEBRISIN ORBIT

Key statistics

Satellite FENGYUN 1C DEB at a glance.

Uptime

9555

Days in orbit

Revolutions

≈ 14.2

Per day

Orbit

SSO

Sun Synchronous Orbit

Inclination

99.1

Latest

Satellite identification and parameters

Extended collection of information and parameters for FENGYUN 1C DEB.

Object identification

Identified? True

Debris? True

Object name: FENGYUN 1C DEB

International designator: 1999-025APU

Object number (NORAD): 30662

Object ID (CCSDS): 30662

Country: PEOPLES REPUBLIC OF CHINA (PRC)

Current information (Y/N): Y

RCS size: SMALL

Orbital parameters

Period: 101.321 minutes

Inclination: 99.0625 deg

SMA: 7199.342 km

Apoapsis: 845.643 km

Periapsis: 796.772 km

RAAN: 233.8081 deg

Eccentricy: 0.0033941

Argument of periapsis: 28.1181 deg

Mean anomaly: 30.2832 deg

Mean motion: 14.21227249 rev/day

Mean motion (dot): 0.00001578 rev/day2

B* drag term: 0.00074174 1/REarth

Two-line elements (TLE)

Creation date: June 30, 2025, 10:36 p.m.

Reference frame: TEME

Reference center: EARTH

Epoch: June 30, 2025, 8:45 p.m. UTC

TLE line 0: 0 FENGYUN 1C DEB

TLE line 1: 1 30662U 99025APU 25181.86504573 .00001578 00000-0 74174-3 0 9994

TLE line 2: 2 30662 99.0625 233.8081 0033941 28.1181 30.2832 14.21227249943161

Live tracking on map

Real-time ground track for satellite FENGYUN 1C DEB.

In-orbit conjunctions

A list of the most updated potential collisions computed for object FENGYUN 1C DEB.

Target Orbit TCA Probability of collision Miss distance Type
CZ-6A DEB LEO 2025-01-29 22:57:15 0.0001443223 323.0 (m) DEBRIS
CZ-6A DEB LEO 2025-01-18 18:52:00 0.0001317741 480.0 (m) DEBRIS

Associated space launch

Chinese polar orbiting meteorological satellite

FENGYUN 1C DEB was lifted into orbit during the mission ‘Long March 4B | Feng Yun 1C’, on board a Long March 4B space rocket.

The launch took place on May 10, 1999, 1:33 a.m. from Launch Complex 7.

For more information about the launch, click the button.

Launch to space Long March 4B | Feng Yun 1C
Long March 4B | Feng Yun 1C

Agency: N/A

Status: Launch Successful

Launch date: May 10, 1999, 1:33 a.m. UTC

Rocket: Long March 4B

Launch pad: Launch Complex 7

Location: Taiyuan Satellite Launch Center, People's Republic of China

...

Latest news about this satellite

There are no fresh news available about this satellite. Check back as we update our databases every day.


Newsletter sign-up

Weekly statistics, charts and insights to help you stay on top of the space industry.